Preview of NWS' New Version of Forecast
This preview is not operational and should not be used for support decisions.

Regional Weather Roundup (RWR)

Issued by National Weather Service (NWS)

                            
000
ASUS46 KSEW 222110
RWRWA 

WASHINGTON REGIONAL WEATHER ROUNDUP
NATIONAL WEATHER SERVICE SEATTLE WA
200 PM PDT WED MAY 22 2019

NOTE:"FAIR" INDICATES FEW OR NO CLOUDS BELOW 12,000 FEET WITH NO 
SIGNIFICANT WEATHER AND/OR OBSTRUCTIONS TO VISIBILITY.

WAZ507-509-555>559-222200-
SEATTLE, TACOMA, EVERETT, AND VICINITY
  
CITY           SKY/WX    TMP DP  RH WIND       PRES   REMARKS
EVERETT        FAIR      67  51  56 VRB6      30.00S                  
BOEING FIELD   FAIR      69  51  52 NW7       29.98S                  
RENTON         FAIR      70  53  54 VRB3      29.98S                  
SEATAC AIRPORT FAIR      70  51  51 NW7       29.99S                  
JBLM-MCCHORD   FAIR      69  58  69 SW5       29.99S                  
PUYALLUP       PTSUNNY   68  54  60 CALM      30.00S                  
BREMERTON      PTSUNNY   69  54  58 S7        29.99R                  
JBLM-FT LEWIS  MOSUNNY   69  58  66 W5        29.99S                  
TACOMA NARROWS FAIR      66  51  58 VRB3      29.99S                  
$$
 
WAZ001-503-506-510-514-515-222200-
NORTH INTERIOR
  
CITY           SKY/WX    TMP DP  RH WIND       PRES   REMARKS
BELLINGHAM     FAIR      67  53  61 SW7       29.98R                  
FRIDAY HARBOR  FAIR      66  54  65 SE7       29.99S                  
EASTSOUND      FAIR      63  54  72 NW6       29.98S                  
PORT ANGELES   FAIR      68  51  54 E7        30.00S                  
EDIZ HOOK      FAIR      65  51  61 E6        29.99F                  
PORT TOWNSEND  FAIR      70  54  56 VRB7      29.98S                  
NAS WHIDBEY    FAIR      65  52  62 W8        30.02S                  
ARLINGTON      PTSUNNY   68  54  60 CALM      29.99R                  
BURLINGTON     NOT AVBL                                               
$$
 
WAZ020-022-039-040-504-511-512-222200-
SOUTHWEST INTERIOR
  
CITY           SKY/WX    TMP DP  RH WIND       PRES   REMARKS
SHELTON        FAIR      70  51  51 VRB6G16   29.97S                  
OLYMPIA        FAIR      70  49  47 VRB3      29.99S                  
CHEHALIS       FAIR      73  55  53 N9        29.99S                  
KELSO          FAIR      70  54  56 W9G16     29.99S                  
VANCOUVER      FAIR      66  51  58 SW5       29.98F                  
SCAPPOOSE, OR  FAIR      73  54  51 VRB6      29.96F                  
PORTLAND, OR   FAIR      68  51  54 NE5       29.98F                  
$$
 
WAZ021-516-517-222200-
WASHINGTON COAST
  
CITY           SKY/WX    TMP DP  RH WIND       PRES   REMARKS
FORKS          FAIR      64  54  69 W10       30.00S                  
HOQUIAM        CLOUDY    58  54  86 SW12      30.03S                  
ASTORIA, OR    CLOUDY    58  51  78 W8        30.04S                  
$$
 
WAZ019-023-024-040-567>569-222200-
CASCADE MOUNTAINS AND COLUMBIA GORGE
  
CITY           SKY/WX    TMP DP  RH WIND       PRES   REMARKS
STAMPEDE PASS  CLOUDY    58  45  62 CALM      30.02S                  
TROUTDALE, OR  FAIR      66  52  60 VRB3      29.99F                  
HOOD RIVER, OR CLOUDY    66  48  52 W7G20     29.93R                  
THE DALLES, OR PTSUNNY   73  50  44 NW13      29.89S                  
$$

WAZ026-027-041>044-520-521-222200-
EAST SLOPES
  
CITY           SKY/WX    TMP DP  RH WIND       PRES   REMARKS
OMAK           CLOUDY    72  39  30 NW8       29.96R                  
WENATCHEE      CLOUDY    68  36  30 VRB6      29.95R                  
ELLENSBURG     CLOUDY    68  40  35 E8        29.96R                  
YAKIMA         CLOUDY    69  38  32 NE8G20    29.94R                  
SUNNYSIDE ARPT MOCLDY    69  44  41 N13       29.93R                  
YAKIMA TC      MOCLDY    68  36  30 NE17      29.93R                  
$$

WAZ028-034-035-222200-
COLUMBIA BASIN
  
CITY           SKY/WX    TMP DP  RH WIND       PRES   REMARKS
EPHRATA        CLOUDY    70  34  26 NE16      29.95R                  
MOSES LAKE     CLOUDY    73  36  25 NE16      29.94S                  
PASCO          PTSUNNY   73  42  32 NW13      29.90R                  
RICHLAND ARPT  CLOUDY    72  41  32 N12       29.90S                  
HERMISTON, OR  CLOUDY    68  45  43 NE8       29.89R                  
$$

WAZ036>038-222200-
NORTHEAST WASHINGTON
  
CITY           SKY/WX    TMP DP  RH WIND       PRES   REMARKS
SPOKANE GEIGER PTSUNNY   66  31  27 NE12G18   29.95S                  
SPOKANE FELTS  PTSUNNY   71  33  24 NE10G22   29.94S                  
FAIRCHILD AFB  NOT AVBL                                               
COEURDALENE,ID FAIR      68  33  27 E12       29.97R                  
DEER PARK      FAIR      69  33  26 E17G29    29.97R                  
$$

WAZ029>033-222200-
SOUTHEAST WASHINGTON
  
CITY           SKY/WX    TMP DP  RH WIND       PRES   REMARKS
PULLMAN        FAIR      67  31  26 E20G29    29.93S                  
LEWISTON, ID   FAIR      71  33  24 E12G24    29.88S                  
WALLA WALLA    FAIR      68  45  43 N20G26    29.86F                  
PENDLETON, OR  FAIR      62  49  62 NW13      29.89S                  
$$